Location: North Fort Myers
(26.6673°N, 81.8801°W)
Time: 14:36:17
(UTC+00:00)

Envisat - Pass Details

Date: 13 August 2022
Orbit: 764 x 765 km, 98.2° (Epoch: 26 September)

Event Time Altitude Azimuth Distance (km) Brightness Sun altitude
Rises 09:07:12 0° 25° (NNE) 3,229 7.1 -23.5°
Reaches altitude 10° 09:09:43 10° 34° (NE) 2,300 6.4 -23.0°
Maximum altitude 09:14:17 33° 98° (E) 1,253 4.5 -22.2°
Drops below altitude 10° 09:18:49 10° 163° (SSE) 2,289 5.3 -21.3°
Enters shadow 09:20:25 - 169° (S) 2,878 5.8 -21.0°
